Worthington, MN

1:44 AM CDT on August 22, 2017 (GMT -0500)
Worthington Municipal

Weather History for KOTG - April, 2013

Change the Weather History Date:

Monday, April 15, 2013

  Actual Average Record
Temperature  
Mean Temperature 32 °F -  
Max Temperature 35 °F 53 °F 89 °F (2002)
Min Temperature 28 °F 34 °F 14 °F (2014)
Degree Days  
Heating Degree Days 34    
Moisture  
Dew Point 25 °F    
Average Humidity 74    
Maximum Humidity 80    
Minimum Humidity 64    
Precipitation  
Precipitation 0.00 in - - ()
Sea Level Pressure  
Sea Level Pressure 29.78 in    
Wind  
Wind Speed 23 mph (West)    
Max Wind Speed 36 mph    
Max Gust Speed 44 mph    
Visibility 10 miles    
Events      
Averages and records for this station are not official NWS values.
T = Trace of Precipitation, MM = Missing Value Source: NWS Daily Summary

Daily Weather History Graph

Daily Weather History Graph

Search for Another Location

Airport or City:

Trip Planner

Search our weather history database for the weather conditions in past years. The results will help you decide how hot, cold, wet, or windy it might be!

Date:

Astronomy

Apr. 15, 2013 Rise Set
Actual Time 6:39 AM CDT 8:06 PM CDT
Civil Twilight 6:09 AM CDT 8:36 PM CDT
Nautical Twilight 5:33 AM CDT 9:12 PM CDT
Astronomical Twilight 4:54 AM CDT 9:50 PM CDT
Moon 10:00 AM CDT (4/15) 12:24 AM CDT (4/15)
Length of Visible Light 14h 26m
Length of Day
13h 27m
Waxing Crescent, 25% of the Moon is Illuminated
Apr 15
Waxing Crescent
Apr 18
First Quarter
Apr 25
Full
May 2
Last Quarter
May 9
New

Hourly Weather History & Observations

Time (CDT) Temp. Windchill Dew Point Humidity Pressure Visibility Wind Dir Wind Speed Gust Speed Precip Events Conditions
12:15 AM 35.6 °F 23.7 °F 26.6 °F 70% 29.52 in 10.0 mi SW 24.2 mph 31.1 mph N/A   Clear
12:35 AM 33.8 °F 20.5 °F 26.6 °F 75% 29.52 in 10.0 mi WSW 27.6 mph 38.0 mph N/A   Clear
12:55 AM 33.8 °F 20.8 °F 26.6 °F 75% 29.53 in 10.0 mi WSW 26.5 mph 35.7 mph N/A   Clear
1:15 AM 33.8 °F 20.3 °F 24.8 °F 70% 29.53 in 10.0 mi WSW 28.8 mph 35.7 mph N/A   Clear
1:35 AM 32.0 °F 18.1 °F 24.8 °F 75% 29.54 in 10.0 mi WSW 27.6 mph 35.7 mph N/A   Clear
1:55 AM 32.0 °F 17.0 °F 23.0 °F 69% 29.53 in 10.0 mi WSW 33.4 mph 41.4 mph N/A   Clear
2:15 AM 30.2 °F 14.5 °F 21.2 °F 69% 29.53 in 10.0 mi WSW 33.4 mph 42.6 mph N/A   Clear
2:35 AM 30.2 °F 14.9 °F 21.2 °F 69% 29.53 in 10.0 mi WSW 31.1 mph 41.4 mph N/A   Clear
2:55 AM 30.2 °F 14.1 °F 21.2 °F 69% 29.54 in 10.0 mi WSW 35.7 mph 43.7 mph N/A   Clear
3:15 AM 30.2 °F 14.3 °F 19.4 °F 64% 29.54 in 10.0 mi WSW 34.5 mph 43.7 mph N/A   Clear
3:35 AM 28.4 °F 12.0 °F 21.2 °F 74% 29.55 in 10.0 mi WSW 33.4 mph 41.4 mph N/A   Clear
3:55 AM 28.4 °F 13.0 °F 21.2 °F 74% 29.55 in 10.0 mi WSW 28.8 mph 38.0 mph N/A   Scattered Clouds
4:15 AM 28.4 °F 13.0 °F 21.2 °F 74% 29.57 in 10.0 mi WSW 28.8 mph 34.5 mph N/A   Mostly Cloudy
4:35 AM 28.4 °F 13.5 °F 21.2 °F 74% 29.58 in 10.0 mi WSW 26.5 mph 33.4 mph N/A   Overcast
4:55 AM 28.4 °F 13.5 °F 21.2 °F 74% 29.58 in 10.0 mi WSW 26.5 mph 32.2 mph N/A   Overcast
5:15 AM 28.4 °F 14.7 °F 21.2 °F 74% 29.59 in 10.0 mi WSW 21.9 mph 31.1 mph N/A   Overcast
5:35 AM 28.4 °F 15.8 °F 21.2 °F 74% 29.60 in 10.0 mi WSW 18.4 mph 32.2 mph N/A   Overcast
5:55 AM 28.4 °F 15.4 °F 21.2 °F 74% 29.61 in 10.0 mi WSW 19.6 mph 28.8 mph N/A   Overcast
6:15 AM 28.4 °F 15.1 °F 23.0 °F 80% 29.61 in 10.0 mi WSW 20.7 mph 24.2 mph N/A   Overcast
6:35 AM 28.4 °F 15.4 °F 23.0 °F 80% 29.63 in 10.0 mi WSW 19.6 mph 26.5 mph N/A   Overcast
6:55 AM 30.2 °F 17.4 °F 23.0 °F 75% 29.64 in 10.0 mi WSW 20.7 mph 27.6 mph N/A   Overcast
7:15 AM 30.2 °F 18.5 °F 24.8 °F 80% 29.66 in 10.0 mi SW 17.3 mph 25.3 mph N/A   Overcast
7:35 AM 30.2 °F 17.1 °F 24.8 °F 80% 29.66 in 10.0 mi WSW 21.9 mph 26.5 mph N/A   Overcast
7:55 AM 30.2 °F 17.8 °F 24.8 °F 80% 29.66 in 10.0 mi WSW 19.6 mph 28.8 mph N/A   Overcast
8:15 AM 30.2 °F 16.8 °F 24.8 °F 80% 29.65 in 10.0 mi West 23.0 mph 28.8 mph N/A   Overcast
8:35 AM 30.2 °F 17.8 °F 24.8 °F 80% 29.65 in 10.0 mi West 19.6 mph 28.8 mph N/A   Overcast
8:55 AM 32.0 °F 19.5 °F 24.8 °F 75% 29.67 in 10.0 mi West 21.9 mph 28.8 mph N/A   Overcast
9:15 AM 32.0 °F 19.5 °F 24.8 °F 75% 29.69 in 10.0 mi West 21.9 mph 28.8 mph N/A   Overcast
9:35 AM 32.0 °F 19.8 °F 26.6 °F 80% 29.70 in 10.0 mi West 20.7 mph 28.8 mph N/A   Overcast
9:55 AM 32.0 °F 18.4 °F 24.8 °F 75% 29.72 in 10.0 mi WSW 26.5 mph - N/A   Overcast
10:15 AM 32.0 °F 18.6 °F 24.8 °F 75% 29.75 in 10.0 mi West 25.3 mph 32.2 mph N/A   Overcast
10:35 AM 33.8 °F 21.9 °F 24.8 °F 70% 29.76 in 10.0 mi WSW 21.9 mph 32.2 mph N/A   Overcast
10:55 AM 33.8 °F 23.2 °F 26.6 °F 75% 29.77 in 10.0 mi WSW 17.3 mph 29.9 mph N/A   Overcast
11:15 AM 33.8 °F 21.9 °F 26.6 °F 75% 29.78 in 10.0 mi WSW 21.9 mph 26.5 mph N/A   Overcast
11:35 AM 33.8 °F 22.2 °F 26.6 °F 75% 29.79 in 10.0 mi WSW 20.7 mph 27.6 mph N/A   Overcast
11:55 AM 33.8 °F 21.6 °F 26.6 °F 75% 29.81 in 10.0 mi WSW 23.0 mph 29.9 mph N/A   Overcast
12:15 PM 33.8 °F 22.5 °F 26.6 °F 75% 29.83 in 10.0 mi WSW 19.6 mph 25.3 mph N/A   Overcast
12:35 PM 33.8 °F 22.2 °F 26.6 °F 75% 29.83 in 10.0 mi WSW 20.7 mph 27.6 mph N/A   Overcast
12:55 PM 33.8 °F 22.2 °F 26.6 °F 75% 29.84 in 10.0 mi West 20.7 mph 26.5 mph N/A   Overcast
1:15 PM 33.8 °F 20.3 °F 26.6 °F 75% 29.85 in 10.0 mi West 28.8 mph 33.4 mph N/A   Overcast
1:35 PM 33.8 °F 21.6 °F 26.6 °F 75% 29.85 in 10.0 mi West 23.0 mph 27.6 mph N/A   Overcast
1:55 PM 33.8 °F 21.3 °F 26.6 °F 75% 29.85 in 10.0 mi West 24.2 mph - N/A   Overcast
2:15 PM 33.8 °F 22.5 °F 26.6 °F 75% 29.86 in 10.0 mi West 19.6 mph 27.6 mph N/A   Overcast
2:35 PM 35.6 °F 25.5 °F 26.6 °F 70% 29.87 in 10.0 mi West 17.3 mph 26.5 mph N/A   Overcast
2:55 PM 35.6 °F 25.2 °F 26.6 °F 70% 29.87 in 10.0 mi West 18.4 mph - N/A   Overcast
3:15 PM 35.6 °F 24.5 °F 26.6 °F 70% 29.89 in 10.0 mi West 20.7 mph 27.6 mph N/A   Overcast
3:35 PM 35.6 °F 25.2 °F 26.6 °F 70% 29.89 in 10.0 mi West 18.4 mph 21.9 mph N/A   Overcast
3:55 PM 35.6 °F 24.0 °F 26.6 °F 70% 29.90 in 10.0 mi West 23.0 mph - N/A   Overcast
4:15 PM 35.6 °F 24.2 °F 26.6 °F 70% 29.90 in 10.0 mi West 21.9 mph 28.8 mph N/A   Overcast
4:35 PM 35.6 °F 24.2 °F 26.6 °F 70% 29.91 in 10.0 mi West 21.9 mph 27.6 mph N/A   Overcast
4:55 PM 35.6 °F 25.2 °F 26.6 °F 70% 29.92 in 10.0 mi West 18.4 mph - N/A   Overcast
5:15 PM 35.6 °F 27.1 °F 26.6 °F 70% 29.93 in 10.0 mi West 12.7 mph - N/A   Overcast
5:35 PM 33.8 °F 22.8 °F 26.6 °F 75% 29.92 in 10.0 mi West 18.4 mph - N/A   Overcast
5:55 PM 33.8 °F 22.8 °F 24.8 °F 70% 29.93 in 10.0 mi WNW 18.4 mph - N/A   Overcast
6:15 PM 33.8 °F 23.2 °F 26.6 °F 75% 29.94 in 10.0 mi WNW 17.3 mph - N/A   Overcast
6:35 PM 33.8 °F 22.8 °F 26.6 °F 75% 29.94 in 10.0 mi WNW 18.4 mph 23.0 mph N/A   Overcast
6:55 PM 33.8 °F 23.2 °F 24.8 °F 70% 29.95 in 10.0 mi WNW 17.3 mph - N/A   Overcast
7:15 PM 33.8 °F 24.3 °F 24.8 °F 70% 29.95 in 10.0 mi WNW 13.8 mph - N/A   Overcast
7:35 PM 33.8 °F 24.8 °F 26.6 °F 75% 29.95 in 10.0 mi WNW 12.7 mph - N/A   Overcast
7:55 PM 33.8 °F 23.9 °F 24.8 °F 70% 29.96 in 10.0 mi WNW 15.0 mph 23.0 mph N/A   Mostly Cloudy
8:15 PM 33.8 °F 24.8 °F 24.8 °F 70% 29.97 in 10.0 mi West 12.7 mph - N/A   Overcast
8:35 PM 33.8 °F 25.8 °F 24.8 °F 70% 29.99 in 10.0 mi West 10.4 mph - N/A   Scattered Clouds
8:55 PM 32.0 °F 23.0 °F 24.8 °F 75% 30.01 in 10.0 mi West 11.5 mph - N/A   Scattered Clouds
9:15 PM 32.0 °F 23.6 °F 24.8 °F 75% 30.02 in 10.0 mi West 10.4 mph - N/A   Mostly Cloudy
9:35 PM 32.0 °F 24.2 °F 26.6 °F 80% 30.03 in 10.0 mi West 9.2 mph - N/A   Overcast
9:55 PM 32.0 °F 23.6 °F 26.6 °F 80% 30.04 in 10.0 mi West 10.4 mph - N/A   Overcast
10:15 PM 32.0 °F 23.6 °F 26.6 °F 80% 30.05 in 10.0 mi West 10.4 mph - N/A   Overcast
10:35 PM 33.8 °F 26.4 °F 26.6 °F 75% 30.04 in 10.0 mi West 9.2 mph - N/A   Overcast
10:55 PM 33.8 °F 25.8 °F 26.6 °F 75% 30.06 in 10.0 mi West 10.4 mph - N/A   Overcast
11:15 PM 32.0 °F 23.6 °F 26.6 °F 80% 30.06 in 10.0 mi West 10.4 mph - N/A   Overcast
11:35 PM 32.0 °F 23.6 °F 26.6 °F 80% 30.05 in 10.0 mi West 10.4 mph - N/A   Overcast
11:55 PM 32.0 °F 23.0 °F 26.6 °F 80% 30.06 in 10.0 mi West 11.5 mph - N/A   Overcast